When you browse on this site, cookies collect data to enhance your experience and personalize the content and advertising you see.
Visit our Privacy Policy to learn more. By continuing to use the site, you agree to this use of cookies and data.
EN

Hourly Weather Bryzgiel

Today, 5 July, Sunday

Time Temperature Precipitation Wind Pressure Humidity
00:00 +17°C° 0 mm 3 mps 747 mmHg 87%
01:00 +17°C° 0 mm 3 mps 747 mmHg 87%
02:00 +17°C° 0 mm 4 mps 747 mmHg 83%
03:00 +17°C° 0 mm 3 mps 746 mmHg 82%
04:00 +17°C° 0 mm 3 mps 746 mmHg 81%
05:00 +17°C° 0 mm 3 mps 746 mmHg 81%
06:00 +18°C° 0.1 mm 3 mps 746 mmHg 84%
07:00 +18°C° 0.1 mm 3 mps 746 mmHg 87%
08:00 +18°C° 0.1 mm 3 mps 746 mmHg 90%
09:00 +19°C° 0.1 mm 3 mps 746 mmHg 87%
10:00 +19°C° 0.1 mm 3 mps 746 mmHg 84%
11:00 +20°C° 0.1 mm 4 mps 746 mmHg 81%
12:00 +22°C° 0.2 mm 4 mps 746 mmHg 78%
13:00 +23°C° 0.2 mm 5 mps 746 mmHg 74%
14:00 +24°C° 0.2 mm 6 mps 745 mmHg 71%
15:00 +25°C° 0.5 mm 5 mps 745 mmHg 76%
16:00 +23°C° 0.5 mm 5 mps 745 mmHg 81%
17:00 +23°C° 0.5 mm 5 mps 745 mmHg 86%
18:00 +22°C° 0.1 mm 4 mps 745 mmHg 86%
19:00 +22°C° 0.1 mm 4 mps 744 mmHg 86%
20:00 +22°C° 0.1 mm 3 mps 744 mmHg 86%
21:00 +21°C° 0 mm 4 mps 744 mmHg 89%
22:00 +20°C° 0 mm 4 mps 744 mmHg 91%
23:00 +19°C° 0 mm 4 mps 744 mmHg 93%

Tomorrow, 6 July, Monday

Time Temperature Precipitation Wind Pressure Humidity
00:00 +19°C° 0 mm 4 mps 744 mmHg 93%
01:00 +20°C° 0 mm 4 mps 744 mmHg 93%
02:00 +20°C° 0 mm 4 mps 744 mmHg 92%
03:00 +20°C° 0 mm 4 mps 744 mmHg 92%
04:00 +19°C° 0 mm 3 mps 744 mmHg 91%
05:00 +19°C° 0 mm 3 mps 743 mmHg 90%
06:00 +20°C° 0 mm 3 mps 744 mmHg 88%
07:00 +20°C° 0 mm 3 mps 744 mmHg 85%
08:00 +20°C° 0 mm 4 mps 744 mmHg 83%
09:00 +20°C° 0 mm 4 mps 744 mmHg 84%
10:00 +19°C° 0 mm 3 mps 744 mmHg 84%
11:00 +19°C° 0 mm 3 mps 743 mmHg 84%
12:00 +20°C° 0 mm 4 mps 743 mmHg 82%
13:00 +20°C° 0 mm 4 mps 743 mmHg 79%
14:00 +21°C° 0 mm 4 mps 743 mmHg 77%
15:00 +21°C° 0.1 mm 4 mps 743 mmHg 74%
16:00 +22°C° 0.1 mm 5 mps 743 mmHg 72%
17:00 +22°C° 0.1 mm 5 mps 743 mmHg 70%
18:00 +21°C° 0 mm 4 mps 743 mmHg 75%
19:00 +19°C° 0 mm 3 mps 744 mmHg 80%
20:00 +18°C° 0 mm 3 mps 744 mmHg 85%
21:00 +16°C° 0 mm 2 mps 744 mmHg 87%
22:00 +15°C° 0 mm 1 mps 744 mmHg 90%
23:00 +13°C° 0 mm 1 mps 744 mmHg 93%

Day after tomorrow, 7 July, Tuesday

Time Temperature Precipitation Wind Pressure Humidity
00:00 +13°C° 0 mm 1 mps 745 mmHg 93%
01:00 +13°C° 0 mm 1 mps 745 mmHg 93%
02:00 +12°C° 0 mm 2 mps 746 mmHg 92%
03:00 +12°C° 0 mm 2 mps 746 mmHg 92%
04:00 +12°C° 0 mm 2 mps 746 mmHg 92%
05:00 +11°C° 0 mm 3 mps 746 mmHg 91%
06:00 +12°C° 0 mm 3 mps 746 mmHg 87%
07:00 +13°C° 0 mm 3 mps 746 mmHg 82%
08:00 +14°C° 0 mm 3 mps 747 mmHg 78%
09:00 +16°C° 0 mm 3 mps 747 mmHg 75%
10:00 +17°C° 0 mm 3 mps 747 mmHg 72%
11:00 +18°C° 0 mm 3 mps 747 mmHg 70%
12:00 +18°C° 0.1 mm 4 mps 747 mmHg 67%
13:00 +19°C° 0.1 mm 4 mps 747 mmHg 65%
14:00 +19°C° 0.1 mm 5 mps 747 mmHg 63%
15:00 +19°C° 0.1 mm 5 mps 748 mmHg 65%
16:00 +17°C° 0.1 mm 5 mps 748 mmHg 66%
17:00 +18°C° 0.1 mm 4 mps 748 mmHg 68%
18:00 +17°C° 0 mm 4 mps 748 mmHg 72%
19:00 +16°C° 0 mm 3 mps 748 mmHg 76%
20:00 +15°C° 0 mm 2 mps 748 mmHg 80%
21:00 +13°C° 0 mm 2 mps 748 mmHg 83%
22:00 +12°C° 0 mm 2 mps 749 mmHg 87%
23:00 +9°C° 0 mm 2 mps 749 mmHg 91%

8 July, Wednesday

Time Temperature Precipitation Wind Pressure Humidity
00:00 +9°C° 0 mm 2 mps 749 mmHg 92%
01:00 +9°C° 0 mm 2 mps 749 mmHg 92%
02:00 +8°C° 0 mm 2 mps 749 mmHg 93%
03:00 +8°C° 0 mm 2 mps 749 mmHg 93%
04:00 +8°C° 0 mm 2 mps 749 mmHg 93%
05:00 +8°C° 0 mm 2 mps 749 mmHg 94%
06:00 +10°C° 0 mm 2 mps 749 mmHg 87%
07:00 +12°C° 0 mm 3 mps 749 mmHg 81%
08:00 +14°C° 0 mm 3 mps 749 mmHg 74%
09:00 +16°C° 0 mm 3 mps 749 mmHg 70%
10:00 +17°C° 0 mm 4 mps 749 mmHg 67%
11:00 +18°C° 0 mm 4 mps 749 mmHg 63%
12:00 +19°C° 0.1 mm 4 mps 749 mmHg 62%
13:00 +19°C° 0.1 mm 4 mps 748 mmHg 61%
14:00 +19°C° 0.1 mm 4 mps 748 mmHg 60%
15:00 +19°C° 0.1 mm 4 mps 748 mmHg 64%
16:00 +18°C° 0.1 mm 4 mps 748 mmHg 69%
17:00 +17°C° 0.1 mm 3 mps 748 mmHg 73%
18:00 +16°C° 0.2 mm 3 mps 748 mmHg 79%
19:00 +14°C° 0.2 mm 3 mps 748 mmHg 85%
20:00 +13°C° 0.2 mm 2 mps 748 mmHg 90%
21:00 +13°C° 0.2 mm 2 mps 748 mmHg 93%
22:00 +13°C° 0.2 mm 2 mps 748 mmHg 95%
23:00 +13°C° 0.2 mm 2 mps 748 mmHg 97%

9 July, Thursday

Time Temperature Precipitation Wind Pressure Humidity
00:00 +13°C° 0 mm 2 mps 748 mmHg 97%
01:00 +12°C° 0 mm 2 mps 748 mmHg 97%
02:00 +12°C° 0 mm 2 mps 748 mmHg 97%
03:00 +12°C° 0 mm 2 mps 748 mmHg 98%
04:00 +12°C° 0 mm 2 mps 749 mmHg 98%
05:00 +10°C° 0 mm 2 mps 749 mmHg 98%
06:00 +13°C° 0 mm 2 mps 749 mmHg 95%
07:00 +14°C° 0 mm 2 mps 749 mmHg 91%
08:00 +15°C° 0 mm 2 mps 750 mmHg 88%
09:00 +16°C° 0.3 mm 2 mps 750 mmHg 84%
10:00 +17°C° 0.3 mm 3 mps 750 mmHg 80%
11:00 +18°C° 0.3 mm 3 mps 750 mmHg 76%
12:00 +19°C° 1 mm 3 mps 750 mmHg 77%
13:00 +19°C° 1 mm 3 mps 750 mmHg 78%
14:00 +19°C° 1 mm 3 mps 750 mmHg 80%
15:00 +19°C° 0.4 mm 3 mps 750 mmHg 77%
16:00 +19°C° 0.4 mm 3 mps 750 mmHg 75%
17:00 +19°C° 0.4 mm 3 mps 750 mmHg 73%
18:00 +18°C° 0.1 mm 3 mps 750 mmHg 78%
19:00 +17°C° 0.1 mm 2 mps 751 mmHg 83%
20:00 +16°C° 0.1 mm 2 mps 751 mmHg 87%
21:00 +15°C° 0 mm 2 mps 751 mmHg 89%
22:00 +14°C° 0 mm 2 mps 751 mmHg 92%
23:00 +12°C° 0 mm 2 mps 752 mmHg 94%

10 July, Friday

Time Temperature Precipitation Wind Pressure Humidity
00:00 +12°C° 0 mm 2 mps 752 mmHg 94%
01:00 +10°C° 0 mm 2 mps 752 mmHg 94%
02:00 +11°C° 0 mm 1 mps 752 mmHg 94%
03:00 +11°C° 0 mm 1 mps 752 mmHg 93%
04:00 +11°C° 0 mm 1 mps 752 mmHg 93%
05:00 +10°C° 0 mm 1 mps 752 mmHg 93%
06:00 +12°C° 0 mm 1 mps 752 mmHg 87%
07:00 +14°C° 0 mm 1 mps 752 mmHg 81%
08:00 +16°C° 0 mm 1 mps 753 mmHg 75%
09:00 +18°C° 0 mm 1 mps 753 mmHg 72%
10:00 +19°C° 0 mm 2 mps 753 mmHg 69%
11:00 +20°C° 0 mm 3 mps 753 mmHg 66%
12:00 +20°C° 0 mm 3 mps 752 mmHg 65%
13:00 +21°C° 0 mm 3 mps 752 mmHg 63%
14:00 +21°C° 0 mm 3 mps 752 mmHg 61%
15:00 +21°C° 0 mm 3 mps 752 mmHg 61%
16:00 +22°C° 0 mm 3 mps 751 mmHg 61%
17:00 +22°C° 0 mm 3 mps 751 mmHg 61%
18:00 +21°C° 0 mm 3 mps 751 mmHg 66%
19:00 +20°C° 0 mm 2 mps 751 mmHg 72%
20:00 +19°C° 0 mm 2 mps 750 mmHg 77%
21:00 +17°C° 0 mm 2 mps 750 mmHg 81%
22:00 +16°C° 0 mm 2 mps 750 mmHg 84%
23:00 +14°C° 0 mm 3 mps 750 mmHg 88%
Show more